When you browse on this site, cookies collect data to enhance your experience and personalize the content and advertising you see.
Visit our Privacy Policy to learn more. By continuing to use the site, you agree to this use of cookies and data.
  • In Deutschland
  • Länderverzeichnis
  • Für 7 Tage
  • Wassertemperatur
  • Wetterkarte
  • Widgets
  • user-avatar
    Anmelden

    Stündliche Wetter Sydney

    Heute, 25 August, Sonntag

    Zeit Temperatur Niederschläge Wind Luftdruck Luftfeuchtigkeit
    00:00 +13°C° 0 mm 3 m/S 760 mmHg 55%
    01:00 +12°C° 0 mm 3 m/S 760 mmHg 58%
    02:00 +11°C° 0 mm 3 m/S 760 mmHg 58%
    03:00 +11°C° 0 mm 3 m/S 760 mmHg 57%
    04:00 +12°C° 0 mm 2 m/S 760 mmHg 57%
    05:00 +12°C° 0 mm 2 m/S 760 mmHg 56%
    06:00 +12°C° 0 mm 2 m/S 761 mmHg 54%
    07:00 +10°C° 0 mm 2 m/S 761 mmHg 53%
    08:00 +14°C° 0 mm 2 m/S 761 mmHg 45%
    09:00 +17°C° 0 mm 2 m/S 761 mmHg 37%
    10:00 +21°C° 0 mm 2 m/S 761 mmHg 27%
    11:00 +21°C° 0 mm 3 m/S 761 mmHg 33%
    12:00 +21°C° 0 mm 5 m/S 761 mmHg 40%
    13:00 +21°C° 0 mm 7 m/S 761 mmHg 46%
    14:00 +20°C° 0 mm 7 m/S 761 mmHg 52%
    15:00 +18°C° 0 mm 7 m/S 762 mmHg 57%
    16:00 +17°C° 0 mm 5 m/S 762 mmHg 66%
    17:00 +16°C° 0 mm 5 m/S 762 mmHg 69%
    18:00 +17°C° 0 mm 4 m/S 763 mmHg 71%
    19:00 +15°C° 0 mm 4 m/S 763 mmHg 74%
    20:00 +15°C° 0.2 mm 4 m/S 764 mmHg 76%
    21:00 +14°C° 0.2 mm 4 m/S 764 mmHg 78%
    22:00 +14°C° 0.2 mm 3 m/S 765 mmHg 80%
    23:00 +14°C° 0.8 mm 3 m/S 765 mmHg 83%

    Morgen, 26 August, Montag

    Zeit Temperatur Niederschläge Wind Luftdruck Luftfeuchtigkeit
    00:00 +13°C° 0.8 mm 3 m/S 765 mmHg 86%
    01:00 +13°C° 0.8 mm 3 m/S 765 mmHg 89%
    02:00 +13°C° 0.6 mm 4 m/S 765 mmHg 89%
    03:00 +13°C° 0.6 mm 4 m/S 764 mmHg 88%
    04:00 +13°C° 0.6 mm 4 m/S 764 mmHg 88%
    05:00 +12°C° 0.5 mm 4 m/S 765 mmHg 89%
    06:00 +12°C° 0.5 mm 4 m/S 765 mmHg 89%
    07:00 +12°C° 0.5 mm 4 m/S 765 mmHg 90%
    08:00 +13°C° 0.8 mm 4 m/S 765 mmHg 84%
    09:00 +14°C° 0.8 mm 4 m/S 765 mmHg 79%
    10:00 +15°C° 0.8 mm 4 m/S 765 mmHg 74%
    11:00 +15°C° 1 mm 4 m/S 765 mmHg 75%
    12:00 +15°C° 1 mm 4 m/S 765 mmHg 75%
    13:00 +15°C° 1 mm 4 m/S 765 mmHg 76%
    14:00 +15°C° 0.8 mm 4 m/S 765 mmHg 77%
    15:00 +14°C° 0.8 mm 4 m/S 764 mmHg 79%
    16:00 +14°C° 0.8 mm 5 m/S 764 mmHg 81%
    17:00 +14°C° 0.6 mm 4 m/S 765 mmHg 82%
    18:00 +13°C° 0.6 mm 4 m/S 765 mmHg 84%
    19:00 +13°C° 0.6 mm 4 m/S 766 mmHg 86%
    20:00 +13°C° 0.6 mm 3 m/S 766 mmHg 86%
    21:00 +13°C° 0.6 mm 3 m/S 766 mmHg 87%
    22:00 +14°C° 0.6 mm 2 m/S 766 mmHg 88%
    23:00 +14°C° 0.9 mm 2 m/S 766 mmHg 89%

    übermorgen, 27 August, Dienstag

    Zeit Temperatur Niederschläge Wind Luftdruck Luftfeuchtigkeit
    00:00 +13°C° 0.9 mm 2 m/S 766 mmHg 90%
    01:00 +13°C° 0.9 mm 2 m/S 766 mmHg 91%
    02:00 +13°C° 1.4 mm 2 m/S 765 mmHg 91%
    03:00 +12°C° 1.4 mm 3 m/S 765 mmHg 91%
    04:00 +12°C° 1.4 mm 3 m/S 765 mmHg 92%
    05:00 +12°C° 1.1 mm 3 m/S 765 mmHg 91%
    06:00 +12°C° 1.1 mm 4 m/S 765 mmHg 90%
    07:00 +12°C° 1.1 mm 4 m/S 766 mmHg 89%
    08:00 +12°C° 2.2 mm 4 m/S 766 mmHg 90%
    09:00 +12°C° 2.2 mm 4 m/S 766 mmHg 90%
    10:00 +12°C° 2.2 mm 4 m/S 766 mmHg 91%
    11:00 +12°C° 2.2 mm 4 m/S 765 mmHg 91%
    12:00 +13°C° 2.2 mm 4 m/S 765 mmHg 91%
    13:00 +13°C° 2.2 mm 4 m/S 765 mmHg 90%
    14:00 +13°C° 1.1 mm 4 m/S 764 mmHg 89%
    15:00 +13°C° 1.1 mm 4 m/S 764 mmHg 88%
    16:00 +13°C° 1.1 mm 4 m/S 764 mmHg 87%
    17:00 +12°C° 0.4 mm 3 m/S 764 mmHg 88%
    18:00 +12°C° 0.4 mm 3 m/S 765 mmHg 89%
    19:00 +12°C° 0.4 mm 3 m/S 765 mmHg 90%
    20:00 +12°C° 0.3 mm 3 m/S 765 mmHg 90%
    21:00 +11°C° 0.3 mm 3 m/S 765 mmHg 91%
    22:00 +12°C° 0.3 mm 2 m/S 765 mmHg 91%
    23:00 +12°C° 0.5 mm 2 m/S 765 mmHg 91%

    28 August, Mittwoch

    Zeit Temperatur Niederschläge Wind Luftdruck Luftfeuchtigkeit
    00:00 +10°C° 0.5 mm 2 m/S 764 mmHg 91%
    01:00 +10°C° 0.5 mm 2 m/S 764 mmHg 92%
    02:00 +10°C° 0.5 mm 2 m/S 764 mmHg 91%
    03:00 +9°C° 0.5 mm 3 m/S 764 mmHg 91%
    04:00 +9°C° 0.5 mm 3 m/S 763 mmHg 90%
    05:00 +9°C° 0.2 mm 3 m/S 763 mmHg 89%
    06:00 +9°C° 0.2 mm 3 m/S 764 mmHg 89%
    07:00 +9°C° 0.2 mm 3 m/S 764 mmHg 88%
    08:00 +11°C° 0.1 mm 3 m/S 764 mmHg 79%
    09:00 +13°C° 0.1 mm 3 m/S 763 mmHg 70%
    10:00 +17°C° 0.1 mm 3 m/S 763 mmHg 61%
    11:00 +18°C° 0 mm 2 m/S 763 mmHg 53%
    12:00 +20°C° 0 mm 2 m/S 762 mmHg 46%
    13:00 +23°C° 0 mm 1 m/S 761 mmHg 38%
    14:00 +22°C° 0 mm 1 m/S 761 mmHg 38%
    15:00 +21°C° 0 mm 2 m/S 760 mmHg 38%
    16:00 +20°C° 0 mm 2 m/S 760 mmHg 38%
    17:00 +19°C° 0 mm 2 m/S 761 mmHg 42%
    18:00 +17°C° 0 mm 2 m/S 761 mmHg 45%
    19:00 +15°C° 0 mm 2 m/S 762 mmHg 49%
    20:00 +13°C° 0 mm 3 m/S 762 mmHg 52%
    21:00 +12°C° 0 mm 4 m/S 763 mmHg 56%
    22:00 +10°C° 0 mm 6 m/S 763 mmHg 59%
    23:00 +10°C° 0 mm 6 m/S 763 mmHg 61%

    29 August, Donnerstag

    Zeit Temperatur Niederschläge Wind Luftdruck Luftfeuchtigkeit
    00:00 +9°C° 0 mm 6 m/S 763 mmHg 62%
    01:00 +9°C° 0 mm 6 m/S 763 mmHg 64%
    02:00 +9°C° 0 mm 6 m/S 763 mmHg 63%
    03:00 +9°C° 0 mm 6 m/S 763 mmHg 62%
    04:00 +10°C° 0 mm 6 m/S 763 mmHg 61%
    05:00 +10°C° 0.4 mm 6 m/S 763 mmHg 65%
    06:00 +10°C° 0.4 mm 7 m/S 764 mmHg 69%
    07:00 +10°C° 0.4 mm 8 m/S 764 mmHg 72%
    08:00 +10°C° 0.9 mm 8 m/S 764 mmHg 73%
    09:00 +10°C° 0.9 mm 8 m/S 764 mmHg 74%
    10:00 +8°C° 0.9 mm 9 m/S 764 mmHg 75%
    11:00 +10°C° 1.5 mm 8 m/S 764 mmHg 76%
    12:00 +10°C° 1.5 mm 7 m/S 763 mmHg 77%
    13:00 +10°C° 1.5 mm 7 m/S 763 mmHg 78%
    14:00 +10°C° 1.2 mm 7 m/S 763 mmHg 80%
    15:00 +11°C° 1.2 mm 7 m/S 763 mmHg 83%
    16:00 +11°C° 1.2 mm 7 m/S 763 mmHg 85%
    17:00 +11°C° 2.7 mm 7 m/S 764 mmHg 85%
    18:00 +11°C° 2.7 mm 8 m/S 764 mmHg 86%
    19:00 +11°C° 2.7 mm 9 m/S 765 mmHg 87%
    20:00 +11°C° 10.6 mm 9 m/S 765 mmHg 89%
    21:00 +11°C° 10.6 mm 10 m/S 766 mmHg 92%
    22:00 +9°C° 10.6 mm 10 m/S 766 mmHg 94%
    23:00 +11°C° 5.7 mm 11 m/S 766 mmHg 91%

    30 August, Freitag

    Zeit Temperatur Niederschläge Wind Luftdruck Luftfeuchtigkeit
    00:00 +11°C° 5.7 mm 11 m/S 766 mmHg 87%
    01:00 +10°C° 5.7 mm 12 m/S 766 mmHg 84%
    02:00 +10°C° 1.6 mm 12 m/S 765 mmHg 83%
    03:00 +11°C° 1.6 mm 11 m/S 765 mmHg 83%
    04:00 +11°C° 1.6 mm 11 m/S 765 mmHg 82%
    05:00 +12°C° 0.5 mm 11 m/S 765 mmHg 82%
    06:00 +12°C° 0.5 mm 10 m/S 766 mmHg 81%
    07:00 +12°C° 0.5 mm 10 m/S 766 mmHg 80%
    08:00 +12°C° 0.9 mm 10 m/S 766 mmHg 81%
    09:00 +12°C° 0.9 mm 10 m/S 767 mmHg 82%
    10:00 +12°C° 0.9 mm 10 m/S 767 mmHg 83%
    11:00 +12°C° 1.2 mm 10 m/S 767 mmHg 83%
    12:00 +12°C° 1.2 mm 10 m/S 766 mmHg 83%
    13:00 +11°C° 1.2 mm 10 m/S 766 mmHg 84%
    14:00 +12°C° 0.6 mm 10 m/S 766 mmHg 83%
    15:00 +12°C° 0.6 mm 9 m/S 766 mmHg 83%
    16:00 +12°C° 0.6 mm 9 m/S 766 mmHg 82%
    17:00 +12°C° 0.5 mm 9 m/S 767 mmHg 82%
    18:00 +12°C° 0.5 mm 9 m/S 767 mmHg 81%
    19:00 +12°C° 0.5 mm 8 m/S 768 mmHg 81%
    20:00 +12°C° 0.3 mm 8 m/S 768 mmHg 80%
    21:00 +12°C° 0.3 mm 8 m/S 768 mmHg 79%
    22:00 +12°C° 0.3 mm 7 m/S 768 mmHg 78%
    23:00 +12°C° 0.2 mm 7 m/S 768 mmHg 79%
    Mehr zeigen